Temp
64 64 64 63 63 64 63 64 64 63 64 62 65 62 63 62 60 60 58 59 58 57 58 59 58 60 62 62 63 64 65 64 61 67 72 74 74 73 76 76 76 75 77
63 63 63 63 64 62 63 63 64 65 62 61 60 62 60 61 62 60 57 57 56 56 56 56 57 62 58 60 60 60 61 63 61 61 68 69 70 72 74 75 76 80 78
63 63 63 63 63 62 63 62 61 60 60 59 59 58 58 59 60 61 56 56 56 56 56 55 56 57 56 57 58 58 60 62 62 62 63 69 70 71 71 72 73 73 76
60 60 61 61 62 63 63 62 60 59 58 57 57 57 58 57 58 58 57 56 55 57 56 56 56 56 56 56 58 58 59 58 59 59 60 63 66 69 65 65 68 69 71
61 62 63 64 63 62 62 60 60 57 58 57 56 56 56 57 62 57 56 55 54 54 54 55 57 60 64 62 60 60 60 58 58 57 58 59 62 65 66 66 64 66 69
60 60 61 60 59 59 60 58 57 58 56 56 56 55 55 60 62 63 62 55 54 53 53 57 58 61 61 63 62 62 61 57 55 55 57 58 59 62 65 64 59 59 61
62 63 61 60 61 61 62 60 58 56 55 55 55 55 55 55 61 61 63 59 55 57 55 56 57 61 60 59 61 62 62 62 61 57 55 57 58 62 62 61 61 59 63
58 59 59 59 58 58 57 56 55 55 55 55 56 56 55 59 61 60 62 59 56 56 55 55 55 58 58 59 59 58 59 60 60 60 59 60 61 62 62 63 62 61 62
57 57 58 58 57 56 55 55 55 55 55 55 56 56 56 58 60 58 58 56 56 56 57 57 58 58 59 59 58 55 55 56 60 59 60 61 61 61 62 63 59 59 59
57 58 58 57 56 56 56 56 55 55 56 56 57 58 58 57 59 57 57 56 55 56 57 59 60 58 58 57 54 53 50 52 54 56 57 60 61 61 62 61 60 56 57
58 58 58 58 57 57 56 56 56 56 56 56 56 59 58 59 59 57 56 54 54 54 55 56 58 58 56 54 53 53 51 52 52 53 54 56 56 59 60 62 61 59 58
56 57 57 57 58 60 56 55 56 55 54 56 55 56 59 59 58 57 55 55 56 50 53 55 57 56 53 52 53 54 53 53 52 52 52 53 55 57 59 61 64 65 67
55 56 56 56 56 56 54 54 54 54 53 54 53 56 58 61 60 55 54 54 55 52 54 56 55 53 52 55 55 55 55 53 51 50 51 52 56 60 62 62 62 64 64
55 55 55 54 55 55 54 54 53 55 53 54 55 55 58 59 59 51 52 51 53 53 55 53 53 53 56 55 56 57 57 56 53 52 53 55 59 58 58 60 59 61 60
54 55 54 55 53 54 54 56 55 58 59 59 59 59 55 58 60 53 52 52 51 50 49 48 49 52 52 53 53 55 56 56 55 56 55 55 56 56 56 59 59 57 56
54 54 54 54 55 53 54 55 57 56 55 50 50 54 59 55 50 48 47 46 46 46 46 47 48 48 48 50 50 51 53 54 53 54 55 56 55 55 56 57 56 54 53
52 54 54 54 54 55 55 54 55 61 52 51 49 48 45 51 47 46 46 45 44 44 45 47 46 46 46 47 48 49 50 52 53 53 53 54 55 56 55 56 56 56 55
53 54 54 56 55 57 54 56 59 59 58 60 59 52 52 47 46 44 44 44 48 47 47 47 46 45 45 45 46 46 47 51 51 52 52 53 53 54 55 55 56 56 56
54 55 57 55 55 56 58 56 56 58 56 59 60 56 52 46 43 42 43 48 49 48 48 48 47 46 45 44 45 45 46 47 50 51 51 52 52 53 53 56 57 53 53
55 58 59 59 58 56 56 56 56 58 55 56 56 57 54 48 50 51 50 50 49 49 49 48 49 46 45 45 44 44 44 45 46 48 49 51 51 52 53 55 55 57 56
56 58 60 56 55 58 58 58 58 57 57 58 58 58 51 53 54 53 52 50 51 50 50 49 49 47 46 44 44 43 44 44 44 45 47 50 50 49 52 54 55 55 58
58 59 60 60 60 58 57 57 58 57 59 59 58 58 49 48 53 55 53 51 52 52 52 51 50 49 47 45 44 44 43 43 44 45 46 49 49 49 51 53 53 54 55
58 60 60 59 60 58 58 59 59 60 60 60 61 58 56 53 53 54 54 55 54 53 53 51 51 50 47 46 45 46 45 45 43 43 45 49 48 47 49 51 52 53 53
60 60 59 59 59 58 58 59 60 56 58 60 60 59 55 54 56 57 56 57 56 56 54 52 52 52 50 51 51 50 48 47 44 44 46 47 47 47 49 50 50 50 52
60 59 58 58 59 59 58 58 58 59 58 57 57 56 57 57 55 56 56 59 58 54 52 51 50 50 50 50 52 54 49 34 40 39 49 49 50 50 51 50 50 50 50
60 59 59 59 58 59 59 59 59 57 55 56 56 55 54 54 54 55 55 55 53 54 54 52 54 54 53 51 51 45 38 36 40 36 45 50 49 49 49 50 51 50 51
MSLP
1019.81 1020.53 1020.81 1021.02 1021.05 1021.16 1021.26 1021.01 1021.17 1021.19 1021.18 1021.43 1021.21 1020.71 1021.54 1021.27 1021.45 1021.40 1021.63 1021.57 1021.38 1021.28 1021.25 1020.93 1020.62 1020.19 1019.78 1019.40 1018.87 1018.31 1017.76 1017.19 1016.22 1013.91 1013.52 1012.92 1012.33 1011.92 1011.43 1011.05 1010.59 1010.20 1009.82
1020.45 1020.80 1020.91 1021.05 1021.46 1021.84 1021.81 1021.42 1021.07 1021.43 1021.55 1021.53 1021.42 1021.37 1021.66 1021.55 1021.76 1021.64 1021.55 1021.47 1021.45 1021.35 1021.43 1021.10 1020.81 1020.38 1020.02 1019.52 1018.89 1018.26 1017.65 1017.10 1016.51 1014.99 1013.36 1012.66 1012.27 1011.81 1011.19 1010.67 1010.22 1009.59 1009.29
1020.62 1020.95 1021.17 1021.36 1021.69 1021.93 1022.24 1022.00 1021.78 1021.91 1021.90 1021.53 1021.55 1021.69 1021.72 1021.82 1021.62 1021.68 1021.52 1021.48 1021.36 1021.17 1021.28 1020.92 1020.62 1020.22 1019.70 1019.25 1018.79 1018.20 1017.47 1016.74 1016.15 1015.08 1013.59 1012.70 1011.74 1011.42 1010.77 1010.34 1009.81 1009.28 1008.86
1020.53 1020.92 1021.26 1021.35 1021.45 1021.81 1022.12 1022.03 1022.06 1021.89 1022.17 1022.30 1022.02 1022.03 1021.83 1021.66 1021.43 1021.60 1021.34 1021.12 1021.05 1020.97 1020.83 1020.51 1020.27 1019.89 1019.26 1018.73 1018.16 1017.64 1017.03 1016.39 1015.62 1014.70 1013.50 1012.57 1011.70 1010.76 1010.42 1009.84 1009.23 1008.87 1008.48
1020.75 1020.92 1021.31 1021.43 1021.67 1021.83 1022.25 1022.25 1022.56 1022.35 1022.34 1022.26 1021.93 1021.77 1021.43 1021.21 1021.16 1021.04 1020.92 1020.85 1020.76 1020.34 1020.19 1019.77 1019.39 1019.03 1018.48 1018.01 1017.42 1016.67 1016.34 1015.69 1014.97 1014.22 1013.09 1012.24 1011.22 1010.46 1009.83 1009.30 1008.84 1008.36 1007.87
1021.04 1021.15 1021.27 1021.40 1021.73 1022.01 1022.11 1022.20 1022.25 1022.26 1022.22 1021.99 1021.65 1021.39 1021.02 1020.74 1020.47 1020.13 1020.12 1020.00 1019.87 1019.64 1019.37 1018.93 1018.59 1017.98 1017.28 1016.68 1016.25 1015.93 1015.67 1014.95 1014.28 1013.68 1012.59 1011.55 1010.83 1010.54 1009.86 1009.06 1008.77 1008.42 1007.49
1020.79 1020.94 1021.21 1021.17 1021.42 1021.63 1021.79 1021.91 1021.65 1021.65 1021.82 1021.39 1020.87 1020.88 1020.50 1019.91 1019.51 1019.25 1019.12 1019.15 1018.99 1018.75 1018.50 1017.98 1017.45 1016.84 1016.23 1015.68 1015.08 1014.49 1013.94 1013.66 1013.34 1012.80 1011.66 1010.86 1010.23 1010.06 1009.67 1009.25 1008.68 1008.19 1007.29
1020.86 1020.96 1021.05 1021.21 1021.38 1021.40 1021.57 1021.44 1021.66 1021.61 1021.46 1020.77 1020.28 1020.12 1019.77 1019.15 1018.67 1018.40 1018.23 1018.47 1018.41 1018.16 1017.88 1017.45 1016.84 1016.11 1015.57 1014.85 1013.93 1013.18 1012.66 1012.15 1011.59 1011.06 1010.33 1009.68 1009.31 1009.23 1008.97 1008.58 1008.16 1007.53 1006.99
1020.65 1020.86 1021.02 1021.08 1021.12 1021.16 1021.42 1021.31 1021.07 1020.92 1020.46 1020.13 1019.63 1019.26 1019.13 1018.69 1018.16 1017.99 1017.88 1018.11 1017.88 1017.61 1017.15 1016.57 1016.19 1015.46 1014.62 1014.13 1013.14 1012.09 1011.16 1010.48 1009.85 1009.34 1008.92 1008.54 1008.40 1008.20 1008.17 1007.86 1007.28 1007.16 1006.02
1020.57 1020.62 1020.65 1020.85 1021.05 1021.18 1020.87 1020.64 1020.44 1020.22 1019.93 1019.47 1019.05 1018.81 1018.47 1018.27 1017.64 1017.34 1017.19 1017.69 1017.44 1016.89 1016.35 1015.76 1015.22 1014.49 1013.81 1013.24 1012.38 1011.30 1009.98 1009.18 1008.55 1007.87 1007.58 1007.30 1007.00 1006.68 1006.75 1006.72 1006.62 1006.08 1005.69
1020.23 1020.30 1020.29 1020.33 1020.43 1020.23 1020.13 1020.01 1019.88 1019.63 1019.47 1019.11 1018.86 1018.21 1017.98 1017.54 1017.18 1016.76 1016.77 1016.89 1016.70 1016.43 1015.82 1015.00 1014.15 1013.35 1012.88 1012.10 1011.33 1010.40 1009.37 1008.62 1007.80 1007.20 1006.83 1006.55 1006.19 1005.79 1005.35 1005.27 1005.19 1005.12 1004.68
1020.02 1020.13 1020.08 1020.00 1019.91 1019.80 1019.86 1019.60 1019.43 1019.36 1019.30 1018.72 1018.43 1017.86 1017.21 1016.70 1016.37 1016.15 1016.19 1015.97 1015.89 1016.11 1015.58 1014.97 1014.22 1013.39 1012.35 1011.12 1010.00 1008.92 1008.12 1007.45 1007.02 1006.46 1006.07 1005.81 1005.31 1004.78 1004.42 1004.15 1003.94 1003.56 1003.14
1019.99 1020.01 1019.80 1019.64 1019.49 1019.45 1019.53 1019.44 1019.17 1018.81 1018.75 1018.37 1018.02 1017.47 1016.73 1015.98 1015.70 1015.57 1015.57 1015.28 1015.33 1015.56 1015.28 1014.84 1014.04 1013.02 1011.88 1010.62 1009.31 1007.93 1006.82 1006.47 1006.18 1005.74 1005.18 1004.64 1004.21 1003.61 1003.25 1003.04 1002.81 1002.54 1002.08
1019.75 1019.70 1019.52 1019.56 1019.26 1018.98 1018.96 1018.81 1018.81 1018.29 1017.97 1017.72 1017.32 1016.78 1016.13 1015.59 1015.17 1015.13 1015.05 1014.86 1015.00 1014.95 1014.85 1014.36 1013.68 1012.85 1011.74 1011.00 1009.50 1008.04 1006.79 1005.87 1005.38 1004.86 1004.34 1003.73 1003.19 1002.75 1002.39 1002.10 1001.72 1001.47 1000.97
1019.32 1019.26 1019.17 1019.05 1018.82 1018.55 1018.25 1018.01 1017.88 1017.20 1017.00 1016.72 1016.21 1015.83 1015.55 1015.08 1014.31 1014.39 1014.37 1014.51 1014.35 1014.37 1014.46 1014.16 1013.44 1012.65 1011.84 1010.85 1009.69 1008.43 1007.15 1006.02 1005.02 1003.88 1003.15 1002.69 1002.37 1001.96 1001.47 1001.07 1000.77 1000.39 999.96
1018.84 1018.80 1018.64 1018.45 1018.17 1017.91 1017.65 1017.07 1016.37 1016.06 1015.42 1015.38 1015.11 1015.06 1014.44 1014.28 1013.76 1013.69 1013.75 1013.69 1013.69 1014.04 1014.50 1014.20 1013.37 1012.66 1011.95 1010.91 1009.76 1008.63 1007.39 1006.22 1005.11 1003.93 1002.63 1002.03 1001.45 1000.89 1000.27 999.82 999.57 999.22 998.89
1018.32 1018.17 1017.93 1017.71 1017.52 1017.35 1017.03 1016.87 1016.38 1014.69 1014.50 1014.32 1013.78 1013.35 1013.49 1013.13 1012.82 1012.83 1012.91 1013.02 1013.09 1013.73 1014.10 1013.70 1012.99 1012.23 1011.52 1010.71 1009.78 1008.77 1007.67 1006.39 1005.34 1004.06 1002.93 1002.01 1000.81 999.82 999.09 998.50 998.02 997.75 997.52
1017.61 1017.41 1017.36 1017.04 1016.83 1016.62 1016.33 1016.05 1015.70 1015.29 1014.81 1013.97 1012.72 1012.58 1012.22 1012.17 1011.96 1011.80 1012.06 1012.67 1012.72 1012.90 1013.02 1012.88 1012.19 1011.59 1011.01 1010.25 1009.46 1008.54 1007.71 1006.64 1005.47 1004.33 1003.23 1002.22 1001.06 999.87 998.45 997.41 996.68 996.13 995.91
1016.80 1016.56 1016.24 1016.00 1015.77 1015.54 1015.35 1015.12 1014.80 1014.44 1014.11 1013.56 1012.77 1012.01 1011.37 1011.38 1011.23 1011.55 1011.74 1011.86 1011.89 1011.83 1011.68 1011.52 1011.16 1010.81 1010.23 1009.54 1008.97 1008.44 1007.81 1006.82 1005.81 1004.80 1003.69 1002.52 1001.22 999.87 998.31 996.69 995.14 994.49 994.72
1015.84 1015.44 1015.24 1015.24 1015.00 1014.77 1014.50 1014.27 1013.82 1013.38 1013.06 1012.55 1012.10 1011.43 1011.00 1011.10 1010.85 1010.88 1010.82 1010.72 1010.83 1010.65 1010.56 1010.40 1009.92 1009.76 1009.53 1009.17 1008.62 1008.06 1007.41 1006.69 1005.79 1004.93 1003.87 1002.72 1001.45 1000.26 998.67 996.92 995.45 993.83 993.54
1014.88 1014.48 1014.16 1014.22 1014.05 1013.80 1013.57 1013.22 1012.78 1012.49 1012.04 1011.48 1010.85 1010.13 1009.72 1010.24 1009.86 1009.69 1009.52 1009.40 1009.31 1009.13 1008.96 1008.94 1008.73 1008.47 1008.38 1008.24 1008.11 1007.73 1007.16 1006.55 1005.87 1005.04 1003.99 1002.86 1001.69 1000.57 999.22 997.83 996.16 994.63 993.21
1013.81 1013.57 1013.37 1013.24 1012.95 1012.76 1012.47 1012.17 1011.84 1011.44 1010.86 1010.35 1009.71 1009.07 1008.71 1009.25 1008.80 1008.47 1008.07 1007.88 1007.58 1007.52 1007.46 1007.62 1007.51 1007.27 1007.01 1007.20 1007.23 1007.21 1006.82 1006.31 1005.70 1004.97 1003.99 1002.91 1001.81 1000.81 999.78 998.46 997.16 995.62 994.32
1012.84 1012.69 1012.47 1012.20 1011.94 1011.61 1011.40 1011.04 1010.73 1010.24 1009.71 1009.18 1008.74 1008.38 1008.12 1007.86 1007.51 1007.28 1006.82 1006.33 1006.22 1006.16 1006.08 1006.22 1006.26 1006.16 1005.84 1005.81 1005.88 1005.94 1005.99 1005.46 1005.22 1004.85 1004.09 1002.86 1001.89 1001.05 1000.24 999.34 998.34 997.04 995.95
1011.66 1011.58 1011.44 1011.21 1010.96 1010.66 1010.43 1010.07 1009.56 1009.11 1008.77 1008.32 1007.84 1007.44 1007.23 1007.04 1006.83 1006.24 1005.67 1005.21 1005.03 1004.88 1004.83 1004.84 1004.90 1004.78 1004.73 1004.64 1004.68 1004.59 1004.87 1004.97 1004.93 1004.25 1003.68 1003.00 1001.99 1001.25 1000.58 1000.05 999.22 998.32 997.26
1010.71 1010.53 1010.42 1010.22 1009.99 1009.69 1009.37 1009.04 1008.70 1008.27 1007.93 1007.65 1007.33 1007.01 1006.67 1006.29 1005.77 1005.74 1005.29 1005.13 1005.19 1005.30 1005.29 1005.27 1004.83 1004.51 1004.47 1004.44 1004.42 1004.37 1004.09 1004.11 1004.03 1003.88 1003.22 1002.80 1002.08 1001.37 1000.83 1000.34 999.86 999.19 998.45
1009.73 1009.41 1009.21 1009.01 1008.81 1008.55 1008.33 1008.11 1007.77 1007.41 1007.23 1006.67 1006.50 1006.39 1006.10 1005.83 1005.73 1005.53 1005.25 1005.22 1005.33 1005.10 1004.97 1004.74 1005.00 1004.98 1004.38 1004.01 1004.11 1004.25 1004.10 1003.90 1003.47 1003.22 1003.17 1002.60 1002.11 1001.66 1001.05 1000.51 1000.07 999.61 999.01
Wind_Speed
9 7 7 6 6 5 4 5 4 4 5 5 5 8 6 6 6 6 5 6 6 6 6 6 7 7 7 8 7 7 8 6 9 16 11 12 13 10 11 9 9 9 8
6 5 6 6 5 6 5 4 5 5 4 4 5 4 5 5 3 4 4 4 5 5 6 6 7 8 8 9 7 10 9 10 10 16 16 12 13 11 13 13 9 9 9
5 4 4 4 2 4 3 3 5 4 4 5 6 5 4 3 2 2 2 3 4 4 6 6 8 8 9 9 10 10 10 10 11 13 14 13 12 10 11 9 9 8 7
5 5 4 4 5 4 3 4 3 3 2 2 1 2 2 4 4 5 5 5 5 5 6 6 8 8 10 11 10 12 12 12 12 12 13 13 13 11 7 8 10 5 5
4 5 4 4 4 5 3 3 3 2 3 5 4 4 4 3 4 5 5 6 7 8 7 7 8 12 23 19 12 12 16 14 13 13 14 13 12 11 12 8 8 6 7
5 6 6 6 5 5 5 5 5 5 6 5 6 6 6 4 10 13 10 6 7 6 7 9 9 17 17 24 26 28 24 16 16 15 15 18 17 14 12 9 7 7 10
6 5 5 6 5 6 5 4 4 5 5 7 6 6 8 7 12 13 16 6 6 9 10 11 12 12 21 17 21 26 25 27 27 20 21 18 18 16 13 15 13 8 10
3 4 4 4 5 4 4 4 5 5 7 6 7 7 6 9 14 15 19 10 8 11 10 11 13 17 17 21 20 20 19 18 18 16 18 19 17 15 15 15 16 13 9
1 2 3 4 5 5 6 7 6 5 6 6 6 8 7 11 16 15 14 7 8 10 10 10 13 17 23 27 22 22 21 19 18 27 28 29 28 27 21 12 12 12 13
5 6 5 5 5 7 7 7 4 4 6 5 8 7 11 11 15 15 13 5 8 8 10 13 19 21 26 28 21 20 19 19 17 15 14 17 19 19 26 20 13 14 13
5 5 5 5 6 7 6 4 5 6 6 7 7 10 9 10 13 16 9 5 6 6 9 12 13 27 29 32 33 18 16 18 20 14 11 10 11 12 10 11 13 13 12
4 5 6 6 5 4 5 6 6 5 6 9 6 8 8 9 11 10 10 10 9 4 10 10 14 27 32 32 25 26 26 19 9 8 8 9 10 11 10 10 14 15 15
4 6 6 6 6 6 5 7 5 4 5 7 5 7 9 9 7 5 11 10 10 4 7 14 24 25 27 22 27 29 22 8 7 7 9 10 11 11 12 12 13 17 17
6 7 6 6 6 6 4 4 5 6 5 6 7 7 8 8 8 3 5 4 7 6 9 11 17 20 19 18 17 15 12 9 8 9 10 10 10 10 10 10 11 11 13
6 6 6 5 6 6 6 6 5 8 8 7 8 7 6 9 10 8 7 5 4 4 7 6 7 8 10 10 11 11 10 10 10 10 9 9 10 10 10 10 11 11 13
6 5 5 5 5 5 5 8 11 18 18 15 19 14 10 13 12 12 12 12 8 2 2 6 8 7 8 10 10 11 9 14 12 12 10 9 10 10 11 11 11 11 12
6 6 5 6 5 5 4 5 7 11 10 16 18 15 15 17 13 13 13 11 5 0 4 7 7 7 7 8 8 9 12 10 12 11 11 12 12 12 12 11 12 11 11
7 10 6 6 5 6 5 7 7 8 9 10 15 8 14 11 15 14 10 3 4 4 4 7 7 6 7 7 8 9 10 10 10 10 11 13 12 12 10 11 12 13 11
6 6 6 6 6 8 7 7 6 8 8 9 11 10 9 11 7 8 9 5 5 5 5 6 6 6 6 5 6 7 8 10 10 9 10 10 12 13 13 12 12 13 11
7 14 12 7 7 6 6 7 7 8 8 9 9 11 5 1 3 5 7 6 7 7 7 7 6 5 5 6 6 5 7 8 9 9 10 10 10 11 13 15 15 11 8
6 7 10 5 6 8 7 8 8 8 9 9 10 10 12 7 8 8 7 7 9 8 9 8 6 5 5 5 5 5 5 7 7 8 8 9 10 11 12 13 15 15 8
6 7 7 8 8 7 8 8 8 8 10 10 11 10 11 5 7 9 9 8 8 9 8 8 7 6 5 5 5 5 5 6 8 8 8 8 8 8 10 11 15 16 12
6 8 9 8 8 9 8 8 8 9 10 10 10 8 7 7 7 9 10 10 8 8 8 8 8 7 6 6 5 5 5 5 6 7 9 8 7 8 8 9 11 13 13
7 9 8 8 7 7 7 8 9 10 10 10 9 9 6 5 7 11 10 9 8 8 7 7 8 10 7 7 5 5 5 4 4 6 8 7 5 7 5 7 8 10 10
7 7 7 8 8 8 8 9 9 8 7 6 6 4 5 6 5 8 6 6 5 5 6 6 5 6 7 8 7 7 7 2 4 7 6 7 8 8 6 4 4 5 6
8 7 8 7 7 8 9 9 9 7 6 5 4 4 4 4 4 4 4 5 5 5 5 4 7 10 8 4 6 11 7 8 5 7 6 5 5 6 5 5 8 4 4
Wind_Direction
82 84 79 56 56 52 67 94 75 33 29 17 39 64 30 36 30 41 12 21 14 360 343 346 329 324 325 316 308 301 298 292 282 294 291 297 296 298 295 284 282 288 282
84 82 82 94 86 63 359 99 91 80 60 58 53 71 38 38 39 34 23 10 5 353 320 330 317 323 312 307 306 301 292 287 282 280 288 290 285 288 281 277 269 269 271
106 104 104 100 99 118 142 87 73 74 51 42 44 34 16 343 348 337 343 320 316 302 289 296 302 310 307 308 302 299 293 288 284 281 282 284 284 290 290 291 275 267 264
126 126 127 129 120 116 105 57 54 69 46 341 316 272 268 277 299 286 311 302 285 274 273 266 276 290 293 291 293 293 290 288 284 278 276 276 272 272 250 266 274 260 271
116 123 137 122 126 129 153 169 215 221 237 247 264 278 281 277 259 253 263 257 255 258 252 253 260 287 309 301 298 295 297 289 283 279 278 276 275 273 263 265 257 269 265
155 161 156 155 162 180 193 202 216 241 253 248 265 272 286 271 261 266 278 255 258 262 276 288 292 310 304 299 296 291 282 284 282 281 276 271 274 273 289 267 255 262 275
167 170 186 172 188 202 220 243 274 278 274 279 282 273 275 271 272 267 283 277 268 289 290 298 303 303 307 300 298 295 282 270 267 276 274 266 270 272 272 277 275 270 264
165 190 197 200 222 237 264 279 273 253 261 271 277 271 269 289 294 295 295 304 289 285 279 272 280 298 299 302 298 299 291 279 267 260 265 270 260 262 259 261 266 272 287
239 269 264 243 247 261 262 262 262 257 276 270 264 282 283 286 284 279 281 293 279 276 276 274 292 299 296 301 301 299 296 284 270 260 263 268 264 261 256 266 261 274 273
236 240 241 237 236 254 256 269 255 243 265 275 290 269 261 266 278 277 284 282 288 291 294 297 305 303 305 304 305 303 297 293 286 268 266 271 269 254 251 248 252 254 260
234 247 263 258 254 258 274 264 280 285 289 286 273 284 281 270 275 274 279 274 271 297 305 312 311 311 309 310 307 299 291 293 288 271 269 273 273 273 248 242 235 235 247
252 270 277 274 269 277 280 285 279 271 273 281 280 284 278 271 259 268 261 263 277 273 301 300 304 310 309 311 310 306 298 297 280 263 265 266 267 263 254 245 243 244 243
249 254 261 267 269 270 269 280 291 274 253 275 263 273 283 286 279 252 268 275 288 277 286 296 305 312 313 313 319 317 313 290 264 259 262 262 256 261 260 256 253 255 257
227 248 251 255 270 270 256 245 256 272 265 262 272 274 280 284 281 249 261 279 270 277 301 307 308 301 303 310 321 328 329 307 272 256 255 256 261 260 254 248 251 251 253
236 252 268 263 263 272 256 250 239 251 231 254 256 258 260 279 276 214 218 230 244 263 322 310 303 312 315 313 322 324 333 334 325 281 256 261 263 255 252 253 252 253 254
251 259 250 260 272 259 264 293 239 235 261 239 249 248 272 250 255 215 230 237 239 296 332 280 293 301 306 313 320 325 327 344 342 335 323 283 271 265 261 256 247 241 247
237 259 257 254 261 267 267 245 280 301 236 250 257 263 215 244 258 229 237 242 255 288 217 272 269 278 288 300 309 320 324 331 329 341 341 329 290 274 267 259 253 248 243
246 248 258 259 247 261 248 252 254 267 282 296 296 271 283 247 256 234 210 99 289 199 225 255 267 272 282 296 312 319 316 315 327 339 339 341 329 319 301 267 260 246 236
247 251 244 243 243 247 262 259 247 261 255 262 284 289 265 259 276 246 164 200 226 241 246 256 258 270 278 281 292 303 306 308 313 321 328 336 338 337 328 319 290 236 220
248 249 249 261 265 265 258 256 263 263 265 264 267 260 269 205 236 221 212 213 225 235 244 242 248 246 261 275 284 288 303 311 313 314 318 325 335 331 338 342 341 307 222
242 257 249 242 241 257 257 265 263 264 263 270 268 265 231 213 245 230 229 217 225 233 238 236 243 240 249 263 274 284 292 301 303 302 309 321 329 330 340 341 348 340 307
238 251 259 253 259 258 255 256 258 258 265 267 267 270 260 217 239 241 231 232 230 230 235 233 238 236 224 237 260 278 288 296 304 309 306 307 319 331 338 350 351 351 352
241 256 260 258 251 252 259 258 258 261 265 268 267 265 263 242 236 242 240 237 230 232 232 222 230 241 226 221 222 230 260 271 287 299 301 314 329 331 338 340 355 352 352
238 246 248 254 254 250 253 260 265 262 263 267 266 265 258 259 265 261 251 246 242 241 232 222 227 230 238 232 229 211 219 255 285 290 300 304 322 332 329 348 343 353 350
243 246 244 249 255 256 260 260 262 264 271 270 281 273 293 276 301 283 275 288 304 302 309 309 281 271 270 264 260 272 270 277 308 308 321 314 318 338 337 331 329 336 5
253 245 248 252 252 255 256 262 262 260 263 259 259 261 260 337 325 319 351 18 15 19 33 42 21 0 354 340 338 321 319 303 315 333 324 304 319 318 331 345 347 334 336